Regional Weather Roundup
Issued by NWS Wakefield, VA

Home | Current Version | Previous Version | Graphics & Text | Print | Product List | Glossary On
Versions: 1 2 3 4 5 6 7 8 9 10 11 12 13 14 15 16 17 18 19 20 21 22 23 24 25 26 27 28 29 30 31 32 33 34 35 36 37 38 39 40 41 42 43 44 45 46 47 48 49 50
000
ASUS41 KAKQ 281515
RWRAKQ

REGIONAL WEATHER ROUNDUP
NATIONAL WEATHER SERVICE WAKEFIELD VA
1100 AM EDT THU MAY 28 2015

Note: "fair" indicates few or no clouds below 12,000 feet with no
significant weather and/or obstructions to visibility. * = Denotes
station may not report precipitation (e.g., rain,snow,etc.),
thunder or fog.

VAZ042-051-052>054-056-281600-
NORTHERN VIRGINIA

CITY           SKY/WX    TMP DP  RH WIND       PRES   REMARKS
WASH NATIONAL  CLOUDY    83  70  64 S5        30.19S
DULLES         PTSUNNY   81  68  64 VRB3      30.19F
FORT BELVOIR   SUNNY     83  66  57 W6        30.19S
QUANTICO       PTSUNNY   76  69  79 S7        30.20S
FREDERICKSBRG* PTSUNNY   82  69  64 CALM      30.19S
STAFFORD*      PTSUNNY   84  64  52 CALM      30.23S
WARRENTON      SUNNY     84  67  57 CALM      30.20S
CULPEPER*      SUNNY     82  66  58 NE5       30.20S
MANASSAS*      SUNNY     82  64  54 CALM      30.19F
LEESBURG*      SUNNY     81  70  69 CALM      30.21S
WINCHESTER     MOSUNNY   82  52  34 NW6       30.21S
FRONT ROYAL*   FAIR      79  64  61 CALM      30.20S
LURAY*         FAIR      84  63  48 CALM      30.22S
$$

VAZ048-049-060>072-079>083-281600-
CENTRAL AND SOUTH CENTRAL VIRGINIA

CITY           SKY/WX    TMP DP  RH WIND       PRES   REMARKS
RICHMOND       CLOUDY    82  69  64 SW8       30.21S
CHESTERFIELD*  NOT AVBL
PETERSBURG*    MOSUNNY   81  75  80 S5        30.21F
HANOVER        MOSUNNY   81  69  67 W6        30.22S
TAPPAHANNOCK*  MOSUNNY   81  65  59 SE3       30.21F
QUINTON*       CLOUDY    78  71  77 S5        30.21S
CHARLOTTSVILLE SUNNY     83  63  50 SE5       30.21R
GORDONSVILLE*  FAIR      81  67  63 SE3       30.20S
ORANGE*        SUNNY     81  68  65 CALM      30.22S
LOUISA*        SUNNY     82  66  57 CALM      30.20S
BUMPASS*       FAIR      82  69  64 CALM      30.20S
FARMVILLE*     MOSUNNY   81  68  64 SW5       30.20R
CREWE*         FAIR      81  69  66 CALM      30.21S
FORT PICKETT*  FAIR      80  70  73 S8        30.22S
CHASE CITY*    FAIR      81  73  76 SW6       30.22S
CLARKSVILLE*   FAIR      77  68  73 S3        30.22F
SOUTH HILL*    PTSUNNY   75  69  81 CALM      30.28F
LAWRENCEVILLE* CLOUDY    77  70  78 S5        30.23S
EMPORIA*         N/A     72  70  94 S5        30.25S
$$

VAZ088>098-281600-
SOUTHEAST VIRGINIA

CITY           SKY/WX    TMP DP  RH WIND       PRES   REMARKS
NORFOLK        PTSUNNY   82  66  58 S14       30.22S
VIRGINIA BEACH PTSUNNY   83  69  62 SW10      30.21F
NORFOLK NAVAL  PTSUNNY   82  67  60 SW9       30.23S
WEST POINT*    PTSUNNY   79  69  70 S6        30.24R
SALUDA*        FAIR      76  70  82 SW7       30.21S
NEWPORT NEWS   PTSUNNY   82  69  64 SW12      30.22S
LANGLEY AFB    PTSUNNY   78  69  73 SW13      30.21S
FORT EUSTIS    PTSUNNY   77  70  79 W6        30.21S
WILLIAMSBURG*  PTSUNNY   79  72  78 SW8       30.24R
HR EXEC AP*    FAIR      79  68  69 SW9       30.24F
FRANKLIN*      CLOUDY    77  68  73 S8        30.24R
WAKEFIELD      CLOUDY    75  69  81 SW5       30.23S
$$

VAZ020-022-025-037-045-281600-
WEST CENTRAL AND SOUTHWEST VIRGINIA

CITY           SKY/WX    TMP DP  RH WIND       PRES   REMARKS
STAUNTON*      SUNNY     82  62  51 CALM      30.25S
WAYNESBORO*    FAIR      77  61  57 W3        30.25S
HOT SPRINGS VA MOSUNNY   69  55  60 N5        30.35R
LYNCHBURG      MOSUNNY   80  64  58 E5        30.24S
DANVILLE       SUNNY     81  68  64 VRB5      30.22S
SOUTH BOSTON*  FAIR      80  68  67 CALM      30.22S
MARTINSVILLE   SUNNY     83  64  53 SE3       30.25S
ROANOKE        PTSUNNY   80  62  54 NE8       30.26R
BLACKSBURG     MOSUNNY   75  63  64 NW3       30.32S
DUBLIN*        MOSUNNY   77  64  62 CALM      30.31R
MARION*        PTSUNNY   76  62  59 CALM      30.33R
HILLSVILLE*    MOSUNNY   73  62  68 N6        30.31S
RICHLANDS*     FAIR      72  62  71 CALM      30.31S
WISE*          CLOUDY    75  57  53 NE5       30.31F
ABINGDON*      PTSUNNY   75  64  70 CALM      30.28S
$$

MDZ021>025-VAZ099-100-281600-
SOUTHERN MARYLAND AND THE DELMARVA PENINSULA

CITY           SKY/WX    TMP DP  RH WIND       PRES   REMARKS
PATUXENT RIVER CLOUDY    79  68  69 SW7       30.20R
BAY BRIDGE APT   N/A    N/A N/A N/A W5        30.19S
LEONARDTOWN    PTSUNNY   77  68  73 SW6       30.22R
DOVER          PTSUNNY   81  73  76 SW9       30.17R
GEORGETOWN     PTSUNNY   79  69  71 SW10      30.20F
EASTON         MOSUNNY   81  72  74 SW3       30.23S
CAMBRIDGE      PTSUNNY   77  68  73 S6        30.20R
SALISBURY      CLOUDY    76  69  79 SW8       30.21R
OCEAN CITY     PTSUNNY   75  68  78 S10       30.21S
WALLOPS ISLAND PTSUNNY   70  66  87 S10       30.23R
ACCOMACK*      CLOUDY    77  70  78 SW6       30.22R
$$

NCZ012>017-030>032-281600-
NORTH CENTRAL AND EASTERN NORTH CAROLINA

CITY           SKY/WX    TMP DP  RH WIND       PRES   REMARKS
ROANOKE RAPIDS CLOUDY    75  70  83 SW7       30.24S
RALEIGH        CLOUDY    75  69  81 S5        30.25S
ELIZABETH CITY SUNNY     79  68  69 S12       30.24F
AHOSKIE*       PTSUNNY   76  68  75 CALM      30.24S
EDENTON*       SUNNY     78  69  72 SW7       30.25S
CURRITUCK*     SUNNY     79  64  61 S6        30.25S
KILL DEVIL HLS CLOUDY    77  65  65 S6        30.25F
MANTEO         CLOUDY    75  64  67 S10       30.27S
CAPE HATTERAS  CLOUDY    77  59  53 S6        30.28R
TARBORO*       CLOUDY    78  68  70 SW6       30.25S
GOLDSBORO      PTSUNNY   79  66  65 CALM      30.23S
WASHINGTON     SUNNY     78  65  65 S5        30.25F
GREENVILLE     PTSUNNY   81  68  65 S3        30.25S
NEW BERN       PTSUNNY   81  64  56 SE6       30.27S
WILMINGTON     SUNNY     79  62  56 E3        30.25S
$$

VAZ048-281600-
ELSEWHERE

CITY           SKY/WX    TMP DP  RH WIND       PRES   REMARKS
HARRISBURG PA  PTSUNNY   80  66  62 W7        30.17S
BALTIMORE      PTSUNNY   83  67  58 CALM      30.18S
ANNAPOLIS      PTSUNNY   73  69  87 SE8       30.19R
ANDREWS AFB    NOT AVBL
PHILADELPHIA   PTSUNNY   79  69  71 W8        30.18R
HENDERSON NC   PTSUNNY   76  68  75 S5        30.24S
GREENSBORO     PTSUNNY   79  66  64 CALM      30.22F
ROCKY MOUNT    PTSUNNY   79  71  76 S6        30.24F
$$

VAZ100-281600-
MARINE

STATION/POSITION TIME  TEMP    WIND        PRES    WAVE   SWELL
                       AIR SEA DIR/SP/G            HT/PER HT/PER
                 (UTC) (F)     (DEG/KT/KT) (MB)    (FT/S) (FT/S)
BRANDYWINE LGT   1400   69 66  180/  8/  8 1022.4F
CAPE MAY NJ      1400   68 70  160/  9/ 11 1022.0F
LEWES DE         1400   77 63  220/  5/ 10 1022.1F
15NM E FENWICK I 1450   65 62              1023.1R   3/ 5
OCEAN-CITY-INLET 1400   63 62  210/ 12/ 14 1022.8F
WACHAPREAGUE VA  1400   74 74  210/ 10/ 14 1023.2F
THOMAS POINT MD  1500   72 70  160/  8/  9 1022.8S
GOOSES REEF MD   1500   72 70  170/  8/  8 1023.4R   1/ 2
COVE POINT MD    1400   75     240/  2/  5 1023.0F
SOLOMONS ISLAND  1400      71                N/A
BISHOPS HEAD MD  1400   73 73  200/  9/ 11 1022.6S
PINEY POINT MD   1400          190/  1/  2   N/A
CAMBRIDGE MD     1400   76 72  180/  4/  8 1022.3F
LEWISETTA VA     1400   75 72              1022.4R
RAPPAHANNOCK LGT 1400          180/ 14/ 16 1023.6F
STINGRAY PT      1500   75 74  230/  6/  6 1023.2R   1/ 3
YORK RVR RNG VA  1400   74     210/  7/  9 1022.5F
YORKTOWN VA      1400   75 70  210/  8/ 12 1022.7F
JAMESTOWN VA     1500   73 76  210/  8/ 12 1022.6R
DOMINION TERM VA 1400   73     220/ 11/ 13 1023.4F
KIPTOPEKE VA     1400      75  200/  7/  9   N/A
CHES BAY BRIDGE  1400   74 71  200/ 11/ 15 1022.9F
CAPE HENRY VA    1400   78     200/  8/ 13 1022.1F
CHESAPEAKE LGHT  1400   67     190/ 18/ 18 1024.2F
WILLOUBY STN VA  1400   74     220/ 11/ 13 1024.1F
CAPE HENRY BUOY  1428      60                N/A     3/ 8
1ST LANDING BUOY 1500      72              1023.0F
CAPE CHARLES BUO 1426      68                N/A     3/ 7   2/ 7
OFFSHORE WE BUOY 1411      65                N/A     3/ 8   2/ 8
64NM E OF VA BCH 1450   66 64  170/  8/  8 1024.6R   3/ 8   3/ 8
DUCK PIER NC     1400   74 54  190/ 10/ 11 1023.7S
44100 DUCK FRF   1424      65                N/A     2/ 8
44056 DUCK FRF   1411      61                N/A     2/ 7
OREGON INLET NC  1400   75 76  170/  9/ 11 1024.9R
HATTERAS NC      1400   76 74  150/  6/  7 1024.5S
DIAMOND SHLS NC  1450   75 77  180/  4/  6 1025.3R   2/ 8   2/ 8
CAPE LOOKOUT NC  1500   74     120/  8/  8 1024.8R
$$


USA.gov is the U.S. government's official web portal to all federal, state and local government web resources and services.